Voltar ao catálogo

STARLINK-30186

AtivoComunicaçõesVLEO
NORAD 57470·PAYLOAD·🇺🇸 United States

Lançado Jul 28, 2023 de Cape Canaveral Space Force Station

Loading…

Próximas Passagens (próximas 24 horas)

TLE

AtualizadoSource: CelesTrak SupGP

Época: Sep 14, 2026, 21:15 UTC

1 57470C 23107P   26257.88590278  .00026933  00000+0  23150-3 0  2578
2 57470  42.9999 331.3639 0004046  14.2164  83.7571 15.68377815    10

Acompanhe STARLINK-30186 em tempo real com AllMySat

Download on the App Store